Location: Malanoce
(44.2500°N, 7.4667°E)
Time: 22:07:12
(UTC+00:00)

Timation 2 Rocket - Pass Details

Date: 17 November 2025
Orbit: 904 x 1074 km, 70.0° (Epoch: 13 December)

Event Time Altitude Azimuth Distance (km) Brightness Sun altitude
Rises 16:51:00 0° 196° (SSW) 3,831 7.6 -9.1°
Reaches altitude 10° 16:53:36 10° 194° (SSW) 2,891 6.9 -9.5°
Maximum altitude 17:00:23 70° 113° (ESE) 1,137 4.2 -10.7°
Drops below altitude 10° 17:07:12 10° 31° (NNE) 2,902 6.1 -11.9°
Enters shadow 17:09:02 - 30° (NNE) 3,562 6.5 -12.2°
